Simultaneous Nadir Overpasses (SNOs) Predictions

Prediction of SNOs between AQUA and METOP-B Satellite Orbit:

Table of predicted SNOs for the next 14.0 days since TLE Epoch: 5/18/2024
Index Date (AQUA) Time (AQUA) Lat,Lon (AQUA) SZA (AQUA ) Date (METOP-B) Time (METOP-B) Lat,Lon (METOP-B) SZA (METOP-B ) Distance(km) Time Diff (sec)
1 05/20/2024 19:31:46 75.70,-115.63 55.42 05/20/2024 19:30:33 75.68,-115.68 55.41 2.14 73
2 05/20/2024 20:21:08 -75.74, 51.89 124.55 05/20/2024 20:21:13 -75.76, 51.88 124.53 1.38 5
3 05/20/2024 21:10:37 76.03,-141.34 55.75 05/20/2024 21:11:46 76.07,-139.74 55.78 43.17 69
4 05/23/2024 11:42:27 75.72, 1.69 54.92 05/23/2024 11:42:03 75.73, 1.56 54.93 3.81 24
5 05/23/2024 12:31:50 -75.81, 169.07 125.00 05/23/2024 12:32:43 -75.80, 169.13 125.00 1.66 53
6 05/26/2024 03:03:43 -75.73, -48.61 125.55 05/26/2024 03:02:55 -75.72, -48.71 125.55 2.76 48
7 05/26/2024 03:53:07 75.78, 118.88 54.51 05/26/2024 03:53:33 75.79, 118.87 54.52 1.71 26
8 05/28/2024 18:24:58 75.74, -98.92 54.04 05/28/2024 18:23:45 75.68, -99.04 53.99 7.00 73
9 05/28/2024 19:14:20 -75.78, 68.62 125.92 05/28/2024 19:14:25 -75.77, 68.56 125.93 2.06 5
10 05/28/2024 20:03:48 76.03,-124.51 54.34 05/28/2024 20:04:58 76.08,-123.10 54.36 37.99 70
11 05/31/2024 10:35:32 75.79, 18.33 53.71 05/31/2024 10:35:13 75.81, 18.45 53.72 3.66 19



Historial Predications of SNOs between AQUA and METOP-B
